Location: Newark
(35.2672°N, 80.7344°W)
Time: 20:59:21
(UTC+00:00)

Vanguard 2 Rocket - Pass Details

Date: 20 January 2020
Orbit: 553 x 3327 km, 32.9° (Epoch: 26 February)

Event Time Altitude Azimuth Distance (km) Brightness Sun altitude
Rises 18:49:33 0° 275° (W) 5,495 11.1 31.8°
Reaches altitude 10° 18:53:38 10° 263° (W) 4,890 11.1 31.5°
Maximum altitude 19:04:50 26° 214° (SW) 4,526 12.9 30.6°
Drops below altitude 10° 19:19:09 10° 167° (SSE) 6,253 12.0 29.3°
Sets 19:25:33 0° 157° (SSE) 7,292 12.0 28.6°
